Change the Weather History Date:

Saturday, March 22, 2014

  Actual Average (KTVC) Record (KTVC)
Temperature  
Mean Temperature 24 °F 33 °F  
Max Temperature 32 °F 42 °F 76 °F (2012)
Min Temperature 15 °F 24 °F -2 °F (1989)
Degree Days  
Heating Degree Days 41 32  
Month to date heating degree days 792  
Since 1 July heating degree days 6132  
Cooling Degree Days 0 0  
Month to date cooling degree days 0  
Year to date cooling degree days 0  
Moisture  
Dew Point 19 °F    
Average Humidity 79    
Maximum Humidity 96    
Minimum Humidity 60    
Precipitation  
Precipitation 0.00 in 0.06 in 1.35 in (1975)
Month to date precipitation 1.26  
Year to date precipitation 5.58  
Sea Level Pressure  
Sea Level Pressure 30.07 in    
Wind  
Wind Speed 6 mph (North)    
Max Wind Speed 17 mph    
Max Gust Speed 25 mph    
Visibility 10 miles    
Events Snow    
T = Trace of Precipitation, MM = Missing Value Source: NWS Daily Summary

Daily Weather History Graph

Daily Weather History Graph

Search for Another Location

Airport or City:

Trip Planner

Search our weather history database for the weather conditions in past years. The results will help you decide how hot, cold, wet, or windy it might be!

Date:

Astronomy

Mar. 22, 2014 Rise Set
Actual Time 7:44 AM EDT 7:59 PM EDT
Civil Twilight 7:15 AM EDT 8:28 PM EDT
Nautical Twilight 6:40 AM EDT 9:03 PM EDT
Astronomical Twilight 6:05 AM EDT 9:38 PM EDT
Moon 1:29 AM EDT (3/22) 11:15 AM EDT (3/22)
Length of Visible Light 13h 13m
Length of Day
12h 15m
Waning Gibbous, 65% of the Moon is Illuminated
Mar 22
Waning Gibbous
Mar 23
Last Quarter
Mar 30
New
Apr 7
First Quarter
Apr 15
Full

Hourly Weather History & Observations

Time (EDT) Temp. Windchill Dew Point Humidity Pressure Visibility Wind Dir Wind Speed Gust Speed Precip Events Conditions
12:16 AM 32.0 °F - 30.2 °F 93% 29.76 in 10.0 mi Calm Calm - N/A   Overcast
12:36 AM 32.0 °F - 30.7 °F 95% 29.77 in 2.5 mi Calm Calm - N/A Snow Light Snow
12:56 AM 32.2 °F - 30.9 °F 95% 29.77 in 5.0 mi Calm Calm - N/A Snow Light Snow
1:16 AM 32.0 °F - 30.4 °F 94% 29.77 in 10.0 mi Calm Calm - N/A   Overcast
1:36 AM 32.0 °F - 30.6 °F 94% 29.78 in 10.0 mi Calm Calm - N/A   Overcast
1:56 AM 32.4 °F - 30.7 °F 94% 29.78 in 10.0 mi Calm Calm - N/A   Overcast
2:16 AM 32.0 °F 27.5 °F 30.7 °F 95% 29.80 in 10.0 mi North 4.6 mph - N/A   Overcast
2:31 AM 32.0 °F - 30.9 °F 96% 29.80 in 7.0 mi Calm Calm - N/A   Overcast
2:52 AM 32.0 °F 28.7 °F 30.9 °F 96% 29.81 in 10.0 mi North 3.5 mph - N/A   Overcast
3:12 AM 32.0 °F 27.5 °F 30.6 °F 94% 29.82 in 10.0 mi North 4.6 mph - N/A   Overcast
3:32 AM 32.0 °F 28.7 °F 30.2 °F 93% 29.82 in 10.0 mi NNW 3.5 mph - N/A   Overcast
3:52 AM 30.7 °F 26.0 °F 28.9 °F 93% 29.84 in 10.0 mi NNW 4.6 mph - N/A   Scattered Clouds
4:12 AM 31.1 °F 25.4 °F 29.3 °F 93% 29.85 in 10.0 mi NW 5.8 mph - N/A   Mostly Cloudy
4:32 AM 30.7 °F 24.1 °F 28.9 °F 93% 29.85 in 10.0 mi NW 6.9 mph - N/A   Overcast
4:52 AM 30.2 °F 25.4 °F 28.2 °F 92% 29.86 in 10.0 mi NW 4.6 mph - N/A   Overcast
5:12 AM 30.4 °F 22.2 °F 28.0 °F 91% 29.88 in 10.0 mi NW 9.2 mph - N/A   Overcast
5:32 AM 30.0 °F 20.5 °F 28.0 °F 92% 29.89 in 10.0 mi WNW 11.5 mph 17.3 mph N/A   Overcast
5:52 AM 29.7 °F 21.3 °F 27.9 °F 93% 29.90 in 10.0 mi NW 9.2 mph - N/A   Overcast
6:13 AM 29.5 °F 21.1 °F 27.5 °F 92% 29.91 in 10.0 mi NW 9.2 mph - N/A   Overcast
6:33 AM 30.0 °F 23.2 °F 28.0 °F 92% 29.93 in 10.0 mi NW 6.9 mph - N/A   Overcast
6:53 AM 29.8 °F 23.9 °F 27.7 °F 92% 29.93 in 10.0 mi NNW 5.8 mph - N/A   Overcast
7:13 AM 29.8 °F 23.9 °F 27.5 °F 91% 29.95 in 10.0 mi NW 5.8 mph - N/A   Overcast
7:33 AM 30.0 °F 23.2 °F 27.9 °F 92% 29.95 in 10.0 mi NW 6.9 mph - N/A   Overcast
7:53 AM 30.2 °F 23.4 °F 28.2 °F 92% 29.96 in 10.0 mi NW 6.9 mph - N/A   Overcast
8:13 AM 30.7 °F 24.1 °F 28.4 °F 91% 29.98 in 10.0 mi NNW 6.9 mph - N/A   Overcast
8:33 AM 31.1 °F 20.9 °F 28.4 °F 90% 29.99 in 10.0 mi North 13.8 mph 19.6 mph N/A   Overcast
8:53 AM 27.3 °F 14.8 °F 23.7 °F 86% 30.00 in 7.0 mi North 17.3 mph 25.3 mph N/A   Overcast
9:14 AM 25.7 °F 13.5 °F 22.1 °F 86% 30.03 in 7.0 mi North 15.0 mph 24.2 mph N/A Snow Light Snow
9:34 AM 24.8 °F 13.4 °F 20.7 °F 84% 30.05 in 10.0 mi North 12.7 mph 25.3 mph N/A   Overcast
9:54 AM 24.4 °F 14.2 °F 20.8 °F 86% 30.07 in 7.0 mi North 10.4 mph 19.6 mph N/A Snow Light Snow
10:14 AM 23.4 °F 10.1 °F 18.5 °F 82% 30.08 in 10.0 mi North 16.1 mph 23.0 mph N/A   Overcast
10:34 AM 23.0 °F 10.1 °F 17.8 °F 80% 30.10 in 7.0 mi North 15.0 mph 23.0 mph N/A Snow Light Snow
10:54 AM 22.8 °F 10.4 °F 17.1 °F 79% 30.11 in 7.0 mi North 13.8 mph 20.7 mph N/A Snow Light Snow
11:14 AM 22.3 °F 9.7 °F 16.5 °F 79% 30.13 in 10.0 mi North 13.8 mph 20.7 mph N/A   Overcast
11:34 AM 23.0 °F 11.7 °F 16.7 °F 77% 30.13 in 10.0 mi North 11.5 mph 18.4 mph N/A   Overcast
11:55 AM 23.0 °F 11.1 °F 16.7 °F 77% 30.14 in 10.0 mi North 12.7 mph 18.4 mph N/A   Overcast
12:15 PM 22.6 °F 11.3 °F 16.3 °F 77% 30.15 in 10.0 mi NNW 11.5 mph 18.4 mph N/A   Overcast
12:35 PM 22.1 °F 11.3 °F 15.3 °F 75% 30.16 in 10.0 mi North 10.4 mph 18.4 mph N/A   Overcast
12:55 PM 21.9 °F 11.0 °F 15.1 °F 75% 30.17 in 10.0 mi North 10.4 mph 20.7 mph N/A   Overcast
1:15 PM 21.9 °F 10.4 °F 14.9 °F 74% 30.18 in 10.0 mi North 11.5 mph - N/A   Overcast
1:35 PM 22.1 °F 10.0 °F 14.9 °F 74% 30.18 in 10.0 mi North 12.7 mph 21.9 mph N/A   Overcast
1:55 PM 22.8 °F 12.9 °F 15.1 °F 72% 30.19 in 10.0 mi North 9.2 mph - N/A   Overcast
2:15 PM 22.5 °F 13.2 °F 14.4 °F 71% 30.18 in 10.0 mi NNW 8.1 mph 18.4 mph N/A   Overcast
2:35 PM 22.8 °F 10.4 °F 14.4 °F 70% 30.18 in 10.0 mi North 13.8 mph 18.4 mph N/A   Overcast
2:56 PM 22.6 °F 9.6 °F 13.5 °F 68% 30.18 in 10.0 mi NW 15.0 mph 20.7 mph N/A   Overcast
3:16 PM 22.5 °F 9.4 °F 12.9 °F 67% 30.19 in 10.0 mi NNW 15.0 mph 20.7 mph N/A   Overcast
3:36 PM 22.6 °F 12.6 °F 12.6 °F 65% 30.19 in 10.0 mi NNW 9.2 mph - N/A   Overcast
3:56 PM 22.8 °F 11.5 °F 12.2 °F 64% 30.19 in 10.0 mi North 11.5 mph 17.3 mph N/A   Mostly Cloudy
4:16 PM 22.8 °F 13.6 °F 12.4 °F 64% 30.20 in 10.0 mi NNW 8.1 mph - N/A   Mostly Cloudy
4:36 PM 23.4 °F 12.8 °F 12.4 °F 63% 30.20 in 10.0 mi North 10.4 mph - N/A   Scattered Clouds
4:56 PM 23.0 °F 13.9 °F 12.6 °F 64% 30.20 in 10.0 mi North 8.1 mph 16.1 mph N/A   Scattered Clouds
5:11 PM 23.0 °F 15.8 °F 12.4 °F 64% 30.20 in 10.0 mi North 5.8 mph - N/A   Scattered Clouds
5:31 PM 23.5 °F 13.7 °F 12.4 °F 62% 30.20 in 10.0 mi NNW 9.2 mph - N/A   Clear
5:52 PM 23.4 °F 14.3 °F 12.0 °F 62% 30.20 in 10.0 mi North 8.1 mph - N/A   Clear
6:12 PM 23.4 °F 12.2 °F 11.7 °F 61% 30.21 in 10.0 mi North 11.5 mph - N/A   Clear
6:32 PM 23.2 °F 14.1 °F 11.5 °F 61% 30.22 in 10.0 mi North 8.1 mph - N/A   Clear
6:52 PM 23.0 °F 13.9 °F 10.9 °F 60% 30.22 in 10.0 mi North 8.1 mph - N/A   Clear
7:12 PM 22.6 °F 13.4 °F 10.9 °F 61% 30.23 in 10.0 mi North 8.1 mph - N/A   Clear
7:32 PM 22.1 °F 14.7 °F 11.3 °F 63% 30.23 in 10.0 mi NNE 5.8 mph - N/A   Scattered Clouds
7:52 PM 21.6 °F 16.8 °F 11.3 °F 65% 30.24 in 10.0 mi North 3.5 mph - N/A   Scattered Clouds
8:12 PM 21.2 °F 12.6 °F 11.1 °F 65% 30.24 in 10.0 mi North 6.9 mph - N/A   Clear
8:32 PM 20.8 °F 14.4 °F 11.1 °F 66% 30.25 in 10.0 mi North 4.6 mph - N/A   Clear
8:53 PM 20.8 °F 14.4 °F 11.3 °F 67% 30.26 in 10.0 mi North 4.6 mph - N/A   Scattered Clouds
9:13 PM 20.7 °F 11.9 °F 10.4 °F 65% 30.27 in 10.0 mi North 6.9 mph - N/A   Scattered Clouds
9:33 PM 19.9 °F 10.1 °F 10.4 °F 67% 30.28 in 10.0 mi NNE 8.1 mph - N/A   Clear
9:53 PM 19.0 °F 13.9 °F 9.7 °F 67% 30.29 in 10.0 mi NNE 3.5 mph - N/A   Clear
10:13 PM 18.3 °F 10.2 °F 9.5 °F 68% 30.30 in 10.0 mi NE 5.8 mph - N/A   Clear
10:33 PM 17.6 °F 10.7 °F 9.5 °F 71% 30.31 in 10.0 mi NNE 4.6 mph - N/A   Clear
10:53 PM 17.4 °F 9.1 °F 9.5 °F 71% 30.31 in 10.0 mi NE 5.8 mph - N/A   Clear
11:13 PM 16.7 °F 8.3 °F 8.4 °F 70% 30.32 in 10.0 mi NNE 5.8 mph - N/A   Clear
11:33 PM 16.3 °F 6.7 °F 8.1 °F 70% 30.32 in 10.0 mi NNE 6.9 mph - N/A   Clear
11:53 PM 15.8 °F 6.1 °F 8.4 °F 73% 30.33 in 10.0 mi NE 6.9 mph - N/A   Scattered Clouds